Location: Leiter
(44.7178°N, 106.2687°W)
Time: 21:12:30
(UTC+00:00)

X-37B - Pass Details

Date: 28 January 2022
Orbit: 329 x 342 km, 45.0° (Epoch: 18 May)

Event Time Altitude Azimuth Distance (km) Brightness Sun altitude
Rises 01:11:10 0° 218° (SW) 2,108 5.2 -11.6°
Reaches altitude 10° 01:13:28 10° 201° (SSW) 1,271 3.7 -12.0°
Maximum altitude 01:15:39 20° 150° (SSE) 853 2.1 -12.3°
Enters shadow 01:16:42 17° 121° (ESE) 962 2.2 -12.5°
